• en Belgique
  • Liste des pays
  • À 7 jours
  • Température de l'eau
  • Carte satellitaire
  • Carte météo
  • Widgets météo
  • user-avatar
    Se connecter

    Météo par heure à Sabaudia

    Ce jour, 23 Octobre, Mardi

    Heure Température Précipitation Vent Pression Humidité
    00:00 +5°C° 0.1 mm 3 m/s 740 mmHg 78%
    01:00 +5°C° 0.1 mm 4 m/s 740 mmHg 79%
    02:00 +7°C° 0 mm 3 m/s 740 mmHg 80%
    03:00 +7°C° 0.1 mm 3 m/s 739 mmHg 82%
    04:00 +6°C° 0.1 mm 4 m/s 739 mmHg 84%
    05:00 +6°C° 0.1 mm 4 m/s 739 mmHg 87%
    06:00 +5°C° 0 mm 4 m/s 739 mmHg 88%
    07:00 +4°C° 0 mm 4 m/s 738 mmHg 90%
    08:00 +4°C° 0 mm 4 m/s 738 mmHg 90%
    09:00 +5°C° 0 mm 5 m/s 737 mmHg 82%
    10:00 +6°C° 0 mm 5 m/s 737 mmHg 74%
    11:00 +7°C° 0 mm 6 m/s 736 mmHg 66%
    12:00 +7°C° 0.1 mm 6 m/s 735 mmHg 63%
    13:00 +6°C° 0.1 mm 7 m/s 734 mmHg 60%
    14:00 +6°C° 0.1 mm 8 m/s 732 mmHg 57%
    15:00 +6°C° 0.7 mm 8 m/s 731 mmHg 62%
    16:00 +6°C° 0.7 mm 8 m/s 730 mmHg 67%
    17:00 +5°C° 0.7 mm 8 m/s 728 mmHg 72%
    18:00 +5°C° 0.7 mm 9 m/s 727 mmHg 74%
    19:00 +5°C° 0.7 mm 9 m/s 726 mmHg 76%
    20:00 +5°C° 0.7 mm 9 m/s 725 mmHg 78%
    21:00 +5°C° 0.8 mm 9 m/s 724 mmHg 80%
    22:00 +5°C° 0.8 mm 9 m/s 723 mmHg 82%
    23:00 +6°C° 0.8 mm 9 m/s 722 mmHg 83%

    Demain, 24 Octobre, Mercredi

    Heure Température Précipitation Vent Pression Humidité
    00:00 +6°C° 1.1 mm 9 m/s 722 mmHg 83%
    01:00 +6°C° 1.1 mm 8 m/s 721 mmHg 83%
    02:00 +6°C° 1.1 mm 8 m/s 720 mmHg 83%
    03:00 +5°C° 0.2 mm 8 m/s 720 mmHg 82%
    04:00 +5°C° 0.2 mm 8 m/s 719 mmHg 81%
    05:00 +4°C° 0.2 mm 8 m/s 719 mmHg 80%
    06:00 +4°C° 0.4 mm 8 m/s 719 mmHg 79%
    07:00 +2°C° 0.4 mm 8 m/s 719 mmHg 77%
    08:00 +2°C° 0.4 mm 8 m/s 719 mmHg 76%
    09:00 +2°C° 0.9 mm 9 m/s 720 mmHg 75%
    10:00 +3°C° 0.9 mm 9 m/s 720 mmHg 73%
    11:00 +3°C° 0.9 mm 9 m/s 721 mmHg 72%
    12:00 +3°C° 0.1 mm 10 m/s 721 mmHg 65%
    13:00 +3°C° 0.1 mm 10 m/s 722 mmHg 58%
    14:00 +3°C° 0.1 mm 10 m/s 722 mmHg 51%
    15:00 +3°C° 0.2 mm 10 m/s 723 mmHg 54%
    16:00 +3°C° 0.2 mm 10 m/s 723 mmHg 57%
    17:00 +2°C° 0.2 mm 10 m/s 723 mmHg 61%
    18:00 +2°C° 0.1 mm 11 m/s 724 mmHg 62%
    19:00 +2°C° 0.1 mm 11 m/s 724 mmHg 63%
    20:00 +2°C° 0.1 mm 11 m/s 724 mmHg 64%
    21:00 +2°C° 0.1 mm 11 m/s 725 mmHg 66%
    22:00 +2°C° 0.1 mm 11 m/s 726 mmHg 67%
    23:00 +2°C° 0.1 mm 11 m/s 727 mmHg 68%

    Après-demain, 25 Octobre, Jeudi

    Heure Température Précipitation Vent Pression Humidité
    00:00 +2°C° 0 mm 10 m/s 727 mmHg 69%
    01:00 +2°C° 0 mm 9 m/s 728 mmHg 69%
    02:00 +2°C° 0 mm 9 m/s 729 mmHg 69%
    03:00 +1°C° 0 mm 9 m/s 729 mmHg 70%
    04:00 +1°C° 0 mm 8 m/s 729 mmHg 72%
    05:00 +1°C° 0 mm 8 m/s 730 mmHg 73%
    06:00 0°C° 0 mm 7 m/s 730 mmHg 73%
    07:00 0°C° 0 mm 7 m/s 730 mmHg 73%
    08:00 +1°C° 0 mm 6 m/s 730 mmHg 73%
    09:00 +2°C° 0 mm 6 m/s 730 mmHg 70%
    10:00 +3°C° 0 mm 6 m/s 730 mmHg 67%
    11:00 +3°C° 0 mm 7 m/s 730 mmHg 65%
    12:00 +3°C° 0.3 mm 7 m/s 729 mmHg 69%
    13:00 +3°C° 0.3 mm 7 m/s 728 mmHg 74%
    14:00 +2°C° 0.3 mm 7 m/s 727 mmHg 78%
    15:00 +3°C° 0.7 mm 7 m/s 727 mmHg 81%
    16:00 +4°C° 0.7 mm 7 m/s 726 mmHg 85%
    17:00 +5°C° 0.7 mm 8 m/s 725 mmHg 88%
    18:00 +5°C° 0.5 mm 8 m/s 725 mmHg 85%
    19:00 +6°C° 0.5 mm 8 m/s 725 mmHg 83%
    20:00 +6°C° 0.5 mm 8 m/s 725 mmHg 80%
    21:00 +5°C° 0.1 mm 8 m/s 726 mmHg 80%
    22:00 +5°C° 0.1 mm 7 m/s 727 mmHg 79%
    23:00 +5°C° 0.1 mm 7 m/s 727 mmHg 79%

    26 Octobre, Vendredi

    Heure Température Précipitation Vent Pression Humidité
    00:00 +4°C° 0 mm 7 m/s 728 mmHg 81%
    01:00 +4°C° 0 mm 6 m/s 728 mmHg 82%
    02:00 +3°C° 0 mm 6 m/s 729 mmHg 84%
    03:00 +3°C° 0 mm 5 m/s 729 mmHg 86%
    04:00 +3°C° 0 mm 5 m/s 729 mmHg 87%
    05:00 +2°C° 0 mm 5 m/s 729 mmHg 89%
    06:00 +2°C° 0 mm 5 m/s 730 mmHg 89%
    07:00 +2°C° 0 mm 5 m/s 730 mmHg 89%
    08:00 +3°C° 0 mm 4 m/s 730 mmHg 89%
    09:00 +3°C° 0 mm 5 m/s 731 mmHg 83%
    10:00 +6°C° 0 mm 5 m/s 731 mmHg 77%
    11:00 +7°C° 0 mm 5 m/s 731 mmHg 72%
    12:00 +8°C° 0 mm 5 m/s 731 mmHg 69%
    13:00 +8°C° 0 mm 5 m/s 731 mmHg 65%
    14:00 +9°C° 0 mm 5 m/s 730 mmHg 62%
    15:00 +8°C° 0 mm 4 m/s 730 mmHg 67%
    16:00 +9°C° 0 mm 3 m/s 730 mmHg 71%
    17:00 +8°C° 0 mm 2 m/s 730 mmHg 75%
    18:00 +8°C° 0 mm 3 m/s 729 mmHg 78%
    19:00 +7°C° 0 mm 4 m/s 729 mmHg 81%
    20:00 +7°C° 0 mm 4 m/s 729 mmHg 83%
    21:00 +7°C° 0 mm 4 m/s 729 mmHg 83%
    22:00 +8°C° 0 mm 5 m/s 728 mmHg 82%
    23:00 +8°C° 0 mm 5 m/s 728 mmHg 81%

    27 Octobre, Samedi

    Heure Température Précipitation Vent Pression Humidité
    00:00 +8°C° 0 mm 5 m/s 728 mmHg 81%
    01:00 +8°C° 0 mm 6 m/s 728 mmHg 81%
    02:00 +8°C° 0 mm 6 m/s 728 mmHg 81%
    03:00 +8°C° 0 mm 6 m/s 728 mmHg 81%
    04:00 +8°C° 0 mm 6 m/s 728 mmHg 82%
    05:00 +7°C° 0 mm 6 m/s 728 mmHg 82%
    06:00 +7°C° 0 mm 6 m/s 728 mmHg 80%
    07:00 +7°C° 0 mm 6 m/s 728 mmHg 79%
    08:00 +7°C° 0 mm 6 m/s 729 mmHg 77%
    09:00 +7°C° 0 mm 6 m/s 729 mmHg 71%
    10:00 +8°C° 0 mm 6 m/s 729 mmHg 64%
    11:00 +8°C° 0 mm 7 m/s 730 mmHg 58%
    12:00 +8°C° 0 mm 7 m/s 730 mmHg 56%
    13:00 +8°C° 0 mm 6 m/s 730 mmHg 55%
    14:00 +8°C° 0 mm 6 m/s 730 mmHg 53%
    15:00 +8°C° 0 mm 5 m/s 731 mmHg 54%
    16:00 +7°C° 0 mm 4 m/s 731 mmHg 56%
    17:00 +8°C° 0 mm 3 m/s 731 mmHg 57%
    18:00 +7°C° 0 mm 3 m/s 731 mmHg 59%
    19:00 +7°C° 0 mm 2 m/s 732 mmHg 62%
    20:00 +6°C° 0 mm 2 m/s 732 mmHg 64%
    21:00 +6°C° 0.1 mm 2 m/s 733 mmHg 66%
    22:00 +7°C° 0.1 mm 1 m/s 733 mmHg 69%
    23:00 +7°C° 0.1 mm 1 m/s 733 mmHg 71%

    28 Octobre, Dimanche

    Heure Température Précipitation Vent Pression Humidité
    00:00 +7°C° 0.3 mm 1 m/s 733 mmHg 73%
    01:00 +6°C° 0.3 mm 1 m/s 733 mmHg 76%
    02:00 +6°C° 0.3 mm 1 m/s 733 mmHg 78%
    03:00 +6°C° 0.6 mm 1 m/s 734 mmHg 80%
    04:00 +5°C° 0.6 mm 2 m/s 734 mmHg 82%
    05:00 +5°C° 0.6 mm 2 m/s 734 mmHg 85%
    06:00 +5°C° 0.9 mm 2 m/s 734 mmHg 85%
    07:00 +4°C° 0.9 mm 3 m/s 734 mmHg 85%
    08:00 +3°C° 0.9 mm 3 m/s 734 mmHg 85%
    09:00 +4°C° 0.4 mm 4 m/s 734 mmHg 84%
    10:00 +4°C° 0.4 mm 4 m/s 734 mmHg 84%
    11:00 +3°C° 0.4 mm 5 m/s 733 mmHg 83%
    12:00 +3°C° 0.2 mm 5 m/s 733 mmHg 84%
    13:00 +3°C° 0.2 mm 5 m/s 733 mmHg 85%
    14:00 +3°C° 0.2 mm 5 m/s 732 mmHg 86%
    15:00 +3°C° 1 mm 5 m/s 732 mmHg 88%
    16:00 +5°C° 1 mm 5 m/s 731 mmHg 90%
    17:00 +5°C° 1 mm 5 m/s 731 mmHg 92%
    18:00 +5°C° 2.6 mm 5 m/s 731 mmHg 93%
    19:00 +5°C° 2.6 mm 4 m/s 730 mmHg 94%
    20:00 +5°C° 2.6 mm 4 m/s 730 mmHg 94%
    21:00 +6°C° 1.4 mm 4 m/s 730 mmHg 94%
    22:00 +6°C° 1.4 mm 4 m/s 730 mmHg 94%
    23:00 +7°C° 1.4 mm 3 m/s 730 mmHg 93%

    29 Octobre, Lundi

    Heure Température Précipitation Vent Pression Humidité
    00:00 +7°C° 0.2 mm 3 m/s 730 mmHg 93%
    01:00 +8°C° 0.2 mm 3 m/s 729 mmHg 93%
    02:00 +8°C° 0.2 mm 3 m/s 729 mmHg 92%
    03:00 +8°C° 0 mm 3 m/s 729 mmHg 91%
    04:00 +9°C° 0 mm 3 m/s 728 mmHg 89%
    05:00 +9°C° 0 mm 3 m/s 728 mmHg 87%
    06:00 +9°C° 0 mm 3 m/s 728 mmHg 84%
    07:00 +10°C° 0 mm 3 m/s 728 mmHg 82%
    08:00 +10°C° 0 mm 3 m/s 728 mmHg 80%
    09:00 +12°C° 0 mm 4 m/s 728 mmHg 73%
    10:00 +14°C° 0 mm 4 m/s 727 mmHg 66%
    11:00 +16°C° 0 mm 5 m/s 727 mmHg 60%
    12:00 +18°C° 0 mm 4 m/s 727 mmHg 59%
    13:00 +18°C° 0 mm 4 m/s 727 mmHg 58%
    14:00 +19°C° 0 mm 4 m/s 727 mmHg 57%
    15:00 +18°C° 0 mm 4 m/s 727 mmHg 61%
    16:00 +16°C° 0 mm 3 m/s 727 mmHg 66%
    17:00 +14°C° 0 mm 3 m/s 726 mmHg 70%
    18:00 +14°C° 0 mm 3 m/s 727 mmHg 73%
    19:00 +13°C° 0 mm 3 m/s 727 mmHg 76%
    20:00 +13°C° 0 mm 3 m/s 727 mmHg 78%
    21:00 +13°C° 0 mm 3 m/s 727 mmHg 79%
    22:00 +12°C° 0 mm 3 m/s 727 mmHg 81%
    23:00 +12°C° 0 mm 3 m/s 727 mmHg 82%
    Voir plus